[[{"header":{"parameterUnit":"m.s-1","parameterCategory":1,"la1":30.2991,"la2":30.254,"lo1":-89.0895,"lo2":-89.0444,"dy":0.0017,"dx":0.0017,"nx":28,"ny":28,"refTime":"2024-12-14T09:00:00:Z","depth":0,"parameterNumber":2,"parameterNumberName":"U-component_of_WINDS"},"data":[0,0,0,0,0,0,0,0,0,0,0,0,0,0,0,0,0,0,0,0,0,0,0,0,0,0,0,0,0,0,0,0,0,0,0,0,0,0,0,0,0,0,0,0,0,0,0,0,0,0,0,0,0,0,0,0,0,0,-5.4851,-5.4851,0,-5.4856,-5.4856,-5.4856,-5.4678,-5.4673,-5.4668,-5.4664,-5.4672,-5.4677,-5.4681,0,0,0,0,0,0,0,0,0,0,0,0,0,-5.4689,-5.4693,-5.4851,-5.4851,-5.4851,-5.4856,-5.4856,-5.4856,-5.4679,-5.4673,-5.4667,-5.4662,-5.4671,-5.4676,-5.4682,0,0,0,0,0,0,0,0,0,0,0,0,0,-5.4734,-5.4694,-5.4851,-5.4763,-5.4755,-5.4856,-5.4856,-5.4856,-5.468,-5.4673,-5.4666,-5.4659,-5.4669,-5.4676,-5.4683,-5.4869,0,0,-5.4704,-5.4707,0,0,0,0,0,0,0,0,-5.4731,-5.474,-5.4776,-5.4769,-5.4761,-5.4759,-5.4802,-5.486,-5.4682,-5.4709,-5.4664,-5.4655,-5.4707,-5.471,-5.4727,-5.4869,-5.4869,-5.4705,-5.4709,-5.4712,-5.4714,0,0,0,0,0,0,0,-5.4728,-5.4738,-5.4853,-5.4777,-5.4767,-5.4724,-5.4722,-5.4812,-5.4748,-5.4706,-5.4693,-5.4696,-5.4701,-5.4721,-5.4726,-5.4869,-5.4704,-5.4711,-5.4715,-5.4718,-5.5163,-5.5171,0,0,0,0,0,0,-5.4737,-5.4737,-5.4853,-5.4853,-5.4728,-5.4733,-5.4731,-5.4767,-5.4746,-5.4736,-5.4702,-5.4687,-5.4712,-5.4718,-5.4726,-5.4942,-5.4712,-5.4718,-5.4722,-5.5156,-5.5165,-5.5173,0,0,0,0,0,0,-5.4734,-5.4749,-5.4852,-5.4792,-5.4801,-5.4743,-5.4785,-5.4771,-5.479,-5.4743,-5.4731,-5.4733,-5.4707,-5.4716,-5.4834,-5.494,-5.4721,-5.4728,-5.5147,-5.5159,-5.5169,-5.5376,0,0,0,0,0,0,-5.473,-5.4749,-5.4819,-5.4794,-5.4805,-5.4961,-5.4791,-5.4776,-5.4802,-5.4783,-5.477,-5.4761,-5.4702,-5.4825,-5.4841,-5.4945,-5.4733,-5.5137,-5.5152,-5.5165,-5.536,-5.5393,-5.5422,0,0,0,0,0,-5.4725,-5.4878,-5.4823,-5.4838,-5.4891,-5.4967,-5.4974,-5.4902,-5.4811,-5.4881,-5.4851,-5.4761,-5.4925,-5.4838,-5.4855,-5.4963,-5.513,-5.5148,-5.5164,-5.5346,-5.5387,-5.5421,0,0,0,0,0,0,-5.4918,-5.4873,-5.4812,-5.4961,-5.4969,-5.4937,-5.5023,-5.4948,-5.4983,-5.4964,-5.4875,-5.4873,-5.5006,-5.4996,-5.49,-5.5142,-5.5011,-5.5033,-5.5144,-5.5182,-5.5213,-5.5213,-5.4739,0,0,0,0,0,-5.4977,-5.5042,-5.5,-5.5135,-5.5142,-5.5083,-5.5113,-5.5057,-5.5062,-5.5065,-5.5044,-5.5053,-5.5106,-5.5143,-5.519,-5.5357,-5.5351,-5.5439,-5.5471,-5.5496,-5.5516,-5.5603,-5.5642,-5.523,-5.523,-5.5229,0,0,-5.5102,-5.5085,-5.5132,-5.5174,-5.5173,-5.5243,-5.5087,-5.5167,-5.5218,-5.5077,-5.5187,-5.5172,-5.5176,-5.532,-5.5382,-5.5316,-5.5629,-5.5518,-5.5539,-5.5545,-5.5625,-5.5664,-5.5699,-5.5241,-5.5239,-5.5237,0,0,-5.5363,-5.5358,-5.5469,-5.5472,-5.5473,-5.5432,-5.5459,-5.5438,-5.5422,-5.5531,-5.5426,-5.5486,-5.558,-5.5587,-5.5603,-5.5867,-5.5785,-5.5884,-5.6048,-5.6134,-5.6166,-5.6194,-5.6289,-5.6323,-5.5904,-5.5904,-5.5905,0,-5.5518,-5.5618,-5.5537,-5.5624,-5.5646,-5.552,-5.5633,-5.564,-5.5657,-5.5675,-5.56,-5.5714,-5.5708,-5.5851,-5.5916,-5.5933,-5.5961,-5.5886,-5.6168,-5.6195,-5.6221,-5.6309,-5.6345,-5.5916,-5.5915,-5.5914,-5.5913,0,-5.5808,-5.5879,-5.597,-5.5988,-5.6019,-5.6119,-5.6054,-5.6095,-5.6037,-5.6004,-5.6116,-5.6104,-5.6146,-5.6175,-5.612,-5.6311,-5.627,-5.6183,-5.6051,-5.6273,-5.6355,-5.6389,-5.5934,-5.5929,-5.5926,-5.5923,0,0,-5.6193,-5.6163,-5.6198,-5.6204,-5.6196,-5.6249,-5.6343,-5.6383,-5.642,-5.6436,-5.6513,-5.6595,-5.6514,-5.6532,-5.6476,-5.6551,-5.6761,-5.6455,-5.6453,-5.6512,-5.6971,-5.7037,-5.7077,-5.6706,-5.6712,-5.6717,-5.697,0,-5.6447,-5.6605,-5.6534,-5.67,-5.6765,-5.6646,-5.6728,-5.6732,-5.6703,-5.6754,-5.6723,-5.6782,-5.6671,-5.6681,-5.6751,-5.6721,-5.6852,-5.6701,-5.6778,-5.6781,-5.6781,-5.712,-5.719,-5.7429,-5.7002,-5.7007,-5.7011,0,-5.6765,-5.6792,-5.6965,-5.6943,-5.6967,-5.7042,-5.7072,-5.7122,-5.7124,-5.7098,-5.7119,-5.7044,-5.7135,-5.7004,-5.7128,-5.7027,-5.7054,-5.7044,-5.7052,-5.7056,-5.691,-5.7134,-5.7504,-5.754,-5.7061,-5.7057,-5.7053,0,-5.7028,-5.7108,-5.7221,-5.723,-5.7208,-5.7264,-5.7257,-5.7252,-5.728,-5.7306,-5.7324,-5.7361,-5.7382,-5.7413,-5.7351,-5.7261,-5.7485,-5.7347,-5.7466,-5.7468,-5.7519,-5.7517,-5.7899,-5.7537,-5.7536,-5.7535,-5.7535,0,-5.7319,-5.743,-5.7339,-5.7409,-5.7528,-5.7446,-5.7567,-5.7548,-5.7544,-5.7608,-5.7508,-5.757,-5.7485,-5.7539,-5.7491,-5.7602,-5.7612,-5.7594,-5.758,-5.7603,-5.7606,-5.762,-5.7602,-5.7545,-5.7543,-5.7541,-5.7539,0,-5.7634,-5.7578,-5.7693,-5.7662,-5.7657,-5.7747,-5.7721,-5.7784,-5.7748,-5.7831,-5.7845,-5.779,-5.7848,-5.7789,-5.7845,-5.7812,-5.796,-5.7922,-5.796,-5.7949,-5.8071,-5.8061,-5.8476,-5.8526,-5.8132,-5.8136,-5.8139,0,-5.7824,-5.7906,-5.7883,-5.7918,-5.7918,-5.7976,-5.8003,-5.7926,-5.7959,-5.7967,-5.803,-5.8079,-5.8115,-5.8214,-5.8179,-5.8221,-5.8183,-5.8326,-5.8189,-5.8209,-5.8185,-5.8181,-5.8189,-5.8354,-5.8359,-5.8362,-5.8365,0,-5.8167,-5.8135,-5.8178,-5.8212,-5.8247,-5.827,-5.8286,-5.8321,-5.824,-5.8282,-5.834,-5.8368,-5.8424,-5.8475,-5.8506,-5.8499,-5.842,-5.8409,-5.8438,-5.8463,-5.8481,-5.8473,-5.8036,-5.84,-5.8396,-5.8394,-5.8392,-5.8391,-5.8425,-5.8491,-5.8486,-5.8537,-5.854,-5.8557,-5.8615,-5.8585,-5.8632,-5.867,-5.8622,-5.8694,-5.8693,-5.8726,-5.8729,-5.8784,-5.8724,-5.8767,-5.8778,-5.8789,-5.8807,-5.8472,-5.8789,-5.8788,-5.8787,-5.8786,-5.8786,0,-5.8762,-5.8752,-5.88,-5.8824,-5.8865,-5.8785,-5.8798,-5.8837,-5.8901,-5.8907,-5.8943,-5.901,-5.9059,-5.9027,-5.9069,-5.9119,-5.9084,-5.9133,-5.9128,-5.9128,-5.8859,-5.8829,-5.916,-5.916,-5.916,-5.916,-5.916,-5.916,-5.8942,-5.9051,-5.9018,-5.9127,-5.9116,-5.9185,-5.9199,-5.9214,-5.9217,-5.9296,-5.9336,-5.9314,-5.9305,-5.9344,-5.9386,-5.9375,-5.9395,-5.9457,-5.9434,-5.9184,-5.9147,-5.9112,-5.9083,-5.9462,-5.9463,-5.9698,-5.97,-5.9702]},{"header":{"parameterUnit":"m.s-1","parameterCategory":1,"la1":30.2991,"la2":30.254,"lo1":-89.0895,"lo2":-89.0444,"dy":0.0017,"dx":0.0017,"nx":28,"ny":28,"refTime":"2024-12-14T09:00:00:Z","depth":0,"parameterNumber":3,"parameterNumberName":"V-component_of_WINDS"},"data":[0,0,0,0,0,0,0,0,0,0,0,0,0,0,0,0,0,0,0,0,0,0,0,0,0,0,0,0,0,0,0,0,0,0,0,0,0,0,0,0,0,0,0,0,0,0,0,0,0,0,0,0,0,0,0,0,0,0,-2.0653,-2.0653,0,-2.0699,-2.0699,-2.07,-2.0696,-2.0695,-2.0695,-2.0694,-2.074,-2.0742,-2.0743,0,0,0,0,0,0,0,0,0,0,0,0,0,-2.0559,-2.0561,-2.0653,-2.0653,-2.0654,-2.0698,-2.0699,-2.07,-2.0696,-2.0695,-2.0695,-2.0694,-2.0739,-2.0741,-2.0744,0,0,0,0,0,0,0,0,0,0,0,0,0,-2.0602,-2.0561,-2.0652,-2.0657,-2.0658,-2.0698,-2.0699,-2.07,-2.0696,-2.0695,-2.0694,-2.0693,-2.0738,-2.0741,-2.0744,-2.0782,0,0,-2.0752,-2.0754,0,0,0,0,0,0,0,0,-2.0599,-2.0605,-2.0656,-2.0657,-2.0658,-2.0691,-2.0683,-2.0727,-2.0697,-2.0682,-2.0694,-2.0693,-2.0724,-2.0728,-2.0739,-2.0784,-2.0786,-2.0753,-2.0754,-2.0756,-2.0756,0,0,0,0,0,0,0,-2.0596,-2.0603,-2.0671,-2.0657,-2.0658,-2.0656,-2.0661,-2.0691,-2.0708,-2.0683,-2.0683,-2.0689,-2.0725,-2.0736,-2.074,-2.0786,-2.0753,-2.0755,-2.0757,-2.0758,-2.0863,-2.0864,0,0,0,0,0,0,-2.0593,-2.0601,-2.0669,-2.0672,-2.0626,-2.0659,-2.0664,-2.0681,-2.0708,-2.0711,-2.0689,-2.0688,-2.0732,-2.0737,-2.0742,-2.0786,-2.0756,-2.0758,-2.076,-2.0862,-2.0863,-2.0864,0,0,0,0,0,0,-2.0591,-2.0599,-2.0667,-2.0636,-2.0645,-2.0662,-2.068,-2.0683,-2.0694,-2.0713,-2.0715,-2.0698,-2.0731,-2.0738,-2.0771,-2.0788,-2.0759,-2.0762,-2.086,-2.0862,-2.0864,-2.0877,0,0,0,0,0,0,-2.0588,-2.0598,-2.0613,-2.0637,-2.0647,-2.0697,-2.0682,-2.0684,-2.0699,-2.0698,-2.0722,-2.0725,-2.0731,-2.0767,-2.0774,-2.0791,-2.0764,-2.0859,-2.0861,-2.0863,-2.0875,-2.0878,-2.0882,0,0,0,0,0,-2.0585,-2.0615,-2.0614,-2.0622,-2.0666,-2.0698,-2.0704,-2.0711,-2.0701,-2.0715,-2.0727,-2.0724,-2.0785,-2.0771,-2.0778,-2.0796,-2.0858,-2.086,-2.0863,-2.0873,-2.0878,-2.0882,0,0,0,0,0,0,-2.0593,-2.0618,-2.0617,-2.0657,-2.0675,-2.0698,-2.0717,-2.0716,-2.0737,-2.0735,-2.0743,-2.0748,-2.0782,-2.0793,-2.0776,-2.0834,-2.082,-2.0824,-2.0825,-2.083,-2.0833,-2.0829,-2.0766,0,0,0,0,0,-2.0599,-2.0624,-2.0645,-2.0677,-2.0687,-2.07,-2.0714,-2.0718,-2.0737,-2.0745,-2.0759,-2.0778,-2.0801,-2.0816,-2.0838,-2.0876,-2.0881,-2.0893,-2.0896,-2.0899,-2.0902,-2.0921,-2.0926,-2.0872,-2.0872,-2.0872,0,0,-2.0613,-2.063,-2.0645,-2.0679,-2.0694,-2.0718,-2.0707,-2.0733,-2.0751,-2.0749,-2.0781,-2.0792,-2.0813,-2.0849,-2.0865,-2.0859,-2.0918,-2.0902,-2.0904,-2.0906,-2.0924,-2.0929,-2.0934,-2.0874,-2.0874,-2.0874,0,0,-2.0649,-2.0665,-2.0693,-2.0708,-2.0731,-2.074,-2.0746,-2.0769,-2.0776,-2.0809,-2.0807,-2.0828,-2.0868,-2.0883,-2.0896,-2.0936,-2.0934,-2.0944,-2.0961,-2.098,-2.0984,-2.0988,-2.1001,-2.1006,-2.0947,-2.0947,-2.0947,0,-2.0663,-2.07,-2.0708,-2.0734,-2.0749,-2.0748,-2.0776,-2.079,-2.0819,-2.0828,-2.0821,-2.0871,-2.0885,-2.0923,-2.0933,-2.0944,-2.0951,-2.0941,-2.0983,-2.0987,-2.0991,-2.1003,-2.1009,-2.0948,-2.0948,-2.0948,-2.0948,0,-2.0715,-2.0741,-2.0761,-2.0788,-2.0805,-2.0832,-2.0843,-2.0859,-2.0861,-2.087,-2.0902,-2.0919,-2.0944,-2.0954,-2.0957,-2.0992,-2.0987,-2.0982,-2.0968,-2.0997,-2.1009,-2.1014,-2.0949,-2.0949,-2.0949,-2.0948,0,0,-2.0758,-2.0789,-2.0796,-2.0808,-2.0833,-2.0852,-2.0879,-2.0903,-2.0916,-2.0936,-2.0957,-2.0991,-2.0985,-2.1,-2.1004,-2.102,-2.105,-2.1012,-2.1013,-2.1018,-2.1089,-2.1092,-2.1098,-2.1049,-2.105,-2.105,-2.1086,0,-2.0796,-2.0843,-2.085,-2.0892,-2.0915,-2.0914,-2.0937,-2.0954,-2.0963,-2.0983,-2.0992,-2.1016,-2.1007,-2.1016,-2.1032,-2.1043,-2.1064,-2.104,-2.1067,-2.1068,-2.1061,-2.1104,-2.1108,-2.1141,-2.1091,-2.1092,-2.1093,0,-2.0847,-2.0868,-2.0911,-2.0931,-2.0941,-2.0962,-2.0984,-2.1004,-2.1023,-2.1028,-2.1043,-2.1045,-2.1071,-2.1057,-2.1092,-2.1076,-2.1088,-2.1094,-2.1096,-2.1098,-2.1082,-2.1106,-2.1152,-2.1157,-2.11,-2.11,-2.1099,0,-2.0872,-2.0911,-2.0942,-2.0952,-2.0977,-2.0991,-2.1002,-2.102,-2.1034,-2.1053,-2.1062,-2.1085,-2.1097,-2.1114,-2.1121,-2.111,-2.1155,-2.1142,-2.1159,-2.1159,-2.1168,-2.1167,-2.1216,-2.1178,-2.1177,-2.1177,-2.1177,0,-2.0913,-2.094,-2.0953,-2.0972,-2.1001,-2.1009,-2.1037,-2.1047,-2.1063,-2.1083,-2.1084,-2.1102,-2.1111,-2.1131,-2.1137,-2.1164,-2.117,-2.1174,-2.1175,-2.1174,-2.1173,-2.1181,-2.1178,-2.1179,-2.1178,-2.1178,-2.1178,0,-2.0946,-2.0957,-2.099,-2.1011,-2.1016,-2.1036,-2.1054,-2.1071,-2.108,-2.1105,-2.1111,-2.1124,-2.1147,-2.1156,-2.1185,-2.1189,-2.122,-2.122,-2.1214,-2.1214,-2.123,-2.1228,-2.1284,-2.1291,-2.1249,-2.125,-2.125,0,-2.0971,-2.0992,-2.1014,-2.1028,-2.1039,-2.1061,-2.1075,-2.1083,-2.1097,-2.112,-2.1134,-2.1157,-2.1176,-2.1213,-2.1224,-2.1246,-2.1245,-2.1264,-2.1249,-2.1246,-2.1244,-2.1242,-2.1244,-2.1266,-2.1266,-2.1267,-2.1267,0,-2.1014,-2.1018,-2.1039,-2.1061,-2.1078,-2.1096,-2.1113,-2.1124,-2.1134,-2.115,-2.1174,-2.1189,-2.1217,-2.124,-2.1261,-2.1272,-2.1271,-2.1272,-2.1277,-2.1275,-2.127,-2.1271,-2.122,-2.127,-2.127,-2.127,-2.127,-2.1269,-2.1043,-2.106,-2.1079,-2.1101,-2.1115,-2.1131,-2.1148,-2.1159,-2.1179,-2.1203,-2.1206,-2.1231,-2.1248,-2.1277,-2.1288,-2.1307,-2.1302,-2.131,-2.1311,-2.1313,-2.1313,-2.1268,-2.1311,-2.1311,-2.1311,-2.1311,-2.1311,0,-2.1085,-2.1096,-2.1117,-2.1141,-2.1159,-2.1157,-2.1175,-2.119,-2.1212,-2.1228,-2.1246,-2.1273,-2.1294,-2.1308,-2.1329,-2.1342,-2.1342,-2.1347,-2.1345,-2.1348,-2.1317,-2.131,-2.1346,-2.1346,-2.1346,-2.1346,-2.1346,-2.1346,-2.1109,-2.1137,-2.1143,-2.1178,-2.1189,-2.1214,-2.1225,-2.1239,-2.1252,-2.1281,-2.1299,-2.1308,-2.1322,-2.1345,-2.1364,-2.1367,-2.1374,-2.138,-2.1382,-2.1354,-2.135,-2.1346,-2.134,-2.1382,-2.1382,-2.1411,-2.1411,-2.1412]}]]